This is the latest recevied weather packets stored in our database for station/object N4WFF. If no packets are shown the sender has not sent any weather packets the latest 10 day(s).
| Time | Temp. | Humidity | Pressure | Rain* | Wind** | Luminosity | Snow |
|---|---|---|---|---|---|---|---|
| 1777925455 | 26.11° C | 38% | 1015.1 hPa | 0 mm | - | 751 W/m² | - |
| 1777925155 | 26.67° C | 39% | 1015.2 hPa | 0 mm | - | 767 W/m² | - |
| 1777924855 | 26.67° C | 37% | 1015.1 hPa | 0 mm | - | 777 W/m² | - |
| 1777924556 | 26.67° C | 38% | 1015.2 hPa | 0 mm | - | 785 W/m² | - |
| 1777924256 | 26.11° C | 38% | 1015.3 hPa | 0 mm | - | 804 W/m² | - |
| 1777923955 | 26.11° C | 37% | 1015.4 hPa | 0 mm | - | 816 W/m² | - |
| 1777923656 | 26.11° C | 38% | 1015.5 hPa | 0 mm | - | 830 W/m² | - |
| 1777923356 | 26.11° C | 39% | 1015.6 hPa | 0 mm | - | 840 W/m² | - |
| 1777923056 | 25.56° C | 38% | 1015.6 hPa | 0 mm | - | 857 W/m² | - |
| 1777922755 | 25.56° C | 39% | 1015.8 hPa | 0 mm | - | 869 W/m² | - |
| 1777922456 | 25.56° C | 40% | 1015.8 hPa | 0 mm | - | 882 W/m² | - |
| 1777922156 | 25.56° C | 38% | 1015.8 hPa | 0 mm | - | 889 W/m² | - |
| 1777921855 | 25.56° C | 39% | 1015.9 hPa | 0 mm | - | 890 W/m² | - |
| 1777921556 | 25.56° C | 39% | 1015.9 hPa | 0 mm | - | 909 W/m² | - |
| 1777921256 | 25.56° C | 39% | 1016 hPa | 0 mm | - | 924 W/m² | - |
| 1777920956 | 25.56° C | 38% | 1016.1 hPa | 0 mm | - | 918 W/m² | - |
| 1777920655 | 25.56° C | 39% | 1016.2 hPa | 0 mm | - | 947 W/m² | - |
| 1777920356 | 25° C | 38% | 1016.3 hPa | 0 mm | - | 956 W/m² | - |
| 1777920055 | 25° C | 38% | 1016.3 hPa | 0 mm | - | 963 W/m² | - |
| 1777919756 | 25° C | 39% | 1016.3 hPa | 0 mm | - | 969 W/m² | - |
| 1777919457 | 25° C | 38% | 1016.3 hPa | 0 mm | - | 972 W/m² | - |
| 1777919155 | 24.44° C | 38% | 1016.3 hPa | 0 mm | - | 977 W/m² | - |
| 1777918855 | 25° C | 38% | 1016.4 hPa | 0 mm | - | 987 W/m² | - |
| 1777918555 | 25° C | 39% | 1016.5 hPa | 0 mm | - | 988 W/m² | - |
| 1777918256 | 25° C | 37% | 1016.6 hPa | 0 mm | - | 958 W/m² | - |
* Rain latest hour (hover to see other rain measurements)
** Current wind speed in m/s (hover to see current wind gust speed)